[[{"header":{"parameterUnit":"m.s-1","parameterCategory":1,"la1":30.2991,"la2":30.254,"lo1":-89.0895,"lo2":-89.0444,"dy":0.0017,"dx":0.0017,"nx":28,"ny":28,"refTime":"2024-04-18T09:00:00:Z","depth":0,"parameterNumber":2,"parameterNumberName":"U-component_of_WINDS"},"data":[0,0,0,0,0,0,0,0,0,0,0,0,0,0,0,0,0,0,0,0,0,0,0,0,0,0,0,0,0,0,0,0,0,0,0,0,0,0,0,0,0,0,0,0,0,0,0,0,0,0,0,0,0,0,0,0,0,0,0.9158,0.9158,0,0.923,0.923,0.9231,0.9223,0.9222,0.9221,0.922,0.9297,0.93,0.9303,0,0,0,0,0,0,0,0,0,0,0,0,0,0.9015,0.9017,0.9157,0.9158,0.9159,0.9229,0.923,0.9231,0.9223,0.9222,0.9221,0.9219,0.9296,0.9299,0.9303,0,0,0,0,0,0,0,0,0,0,0,0,0,0.9081,0.9018,0.9157,0.9164,0.9165,0.9229,0.9231,0.9232,0.9224,0.9222,0.922,0.9219,0.9294,0.9299,0.9304,0.9367,0,0,0.9318,0.932,0,0,0,0,0,0,0,0,0.9077,0.9086,0.9162,0.9163,0.9165,0.9216,0.9208,0.9277,0.9224,0.9201,0.922,0.9218,0.9271,0.9278,0.9295,0.9371,0.9374,0.9318,0.9321,0.9323,0.9325,0,0,0,0,0,0,0,0.9073,0.9083,0.9186,0.9163,0.9165,0.9163,0.9171,0.9221,0.9245,0.9203,0.9203,0.9211,0.9272,0.9291,0.9297,0.9375,0.9318,0.9322,0.9325,0.9327,0.9506,0.9508,0,0,0,0,0,0,0.9066,0.9079,0.9184,0.9188,0.9116,0.9167,0.9176,0.9201,0.9245,0.925,0.9213,0.9211,0.9284,0.9292,0.93,0.9377,0.9323,0.9328,0.933,0.9504,0.9507,0.9509,0,0,0,0,0,0,0.9063,0.9075,0.9181,0.9134,0.9147,0.9172,0.92,0.9203,0.9222,0.9252,0.9256,0.9227,0.9283,0.9293,0.935,0.9379,0.933,0.9334,0.9502,0.9505,0.9508,0.9531,0,0,0,0,0,0,0.9059,0.9074,0.9098,0.9134,0.9149,0.923,0.9202,0.9206,0.923,0.9228,0.9267,0.9272,0.9282,0.9343,0.9355,0.9385,0.9338,0.95,0.9503,0.9507,0.9528,0.9534,0.954,0,0,0,0,0,0.9054,0.9103,0.91,0.9112,0.918,0.9231,0.924,0.925,0.9232,0.9257,0.9276,0.927,0.9374,0.9349,0.9362,0.9394,0.9498,0.9502,0.9506,0.9525,0.9533,0.954,0,0,0,0,0,0,0.9072,0.9108,0.9105,0.9167,0.9196,0.923,0.9261,0.9258,0.9294,0.9291,0.9302,0.9311,0.9369,0.9387,0.9359,0.9457,0.9434,0.9441,0.9443,0.9451,0.9457,0.9452,0.9342,0,0,0,0,0,0.9082,0.912,0.915,0.9202,0.9217,0.9237,0.9259,0.9264,0.9295,0.9308,0.9331,0.9362,0.9401,0.9427,0.9465,0.953,0.9539,0.9559,0.9565,0.9569,0.9576,0.9611,0.962,0.9523,0.9523,0.9523,0,0,0.9106,0.913,0.9154,0.9207,0.923,0.9269,0.9247,0.929,0.932,0.9315,0.937,0.9388,0.9423,0.9484,0.9512,0.9501,0.9604,0.9575,0.9579,0.9582,0.9616,0.9625,0.9633,0.9526,0.9525,0.9525,0,0,0.9169,0.9191,0.9236,0.9259,0.9294,0.9307,0.9317,0.9352,0.9363,0.9418,0.9415,0.945,0.9518,0.9543,0.9565,0.9635,0.9632,0.9648,0.968,0.9714,0.9721,0.9728,0.9753,0.9762,0.9654,0.9654,0.9654,0,0.9194,0.9252,0.926,0.9303,0.9326,0.9322,0.9368,0.9391,0.9437,0.9453,0.9439,0.9523,0.9547,0.9614,0.9631,0.9648,0.9661,0.9643,0.9719,0.9726,0.9733,0.9756,0.9766,0.9655,0.9655,0.9655,0.9655,0,0.9281,0.9321,0.9354,0.9396,0.9423,0.9468,0.9483,0.9509,0.9511,0.9525,0.9581,0.9609,0.9652,0.9668,0.9672,0.9735,0.9727,0.9716,0.9693,0.9743,0.9766,0.9775,0.9658,0.9657,0.9657,0.9656,0,0,0.9358,0.9403,0.9415,0.9434,0.9471,0.9503,0.9547,0.9588,0.961,0.9641,0.9679,0.9735,0.9725,0.975,0.9756,0.9786,0.9839,0.9771,0.9772,0.9783,0.991,0.9918,0.9928,0.9837,0.9838,0.984,0.9907,0,0.9424,0.95,0.9508,0.9577,0.9614,0.9611,0.9649,0.9676,0.969,0.9724,0.974,0.978,0.9764,0.9779,0.9808,0.9826,0.9865,0.9822,0.9872,0.9873,0.9863,0.994,0.9948,1.001,0.9916,0.9917,0.9918,0,0.9511,0.9543,0.9615,0.9646,0.9662,0.9697,0.9734,0.9767,0.9798,0.9806,0.9832,0.9834,0.988,0.9854,0.9917,0.9888,0.9908,0.9921,0.9923,0.9928,0.9899,0.9947,1.0031,1.004,0.9933,0.9931,0.993,0,0.9559,0.9621,0.9672,0.9688,0.9726,0.975,0.9767,0.9796,0.9819,0.9852,0.9868,0.9906,0.9928,0.9957,0.997,0.995,1.0032,1.0007,1.004,1.004,1.0058,1.0057,1.0146,1.0072,1.0072,1.0071,1.0071,0,0.9632,0.9676,0.9694,0.9725,0.9774,0.9783,0.9832,0.9848,0.9873,0.9908,0.9908,0.994,0.9954,0.9989,0.9999,1.005,1.006,1.0068,1.007,1.0068,1.0067,1.0082,1.0078,1.0074,1.0073,1.0073,1.0072,0,0.9694,0.9708,0.9763,0.9793,0.9802,0.9837,0.9863,0.9894,0.9907,0.995,0.9961,0.9982,1.0023,1.0038,1.0089,1.0095,1.0154,1.0152,1.0143,1.0143,1.0175,1.0172,1.0277,1.0291,1.0208,1.0209,1.0209,0,0.974,0.9773,0.9807,0.9829,0.9847,0.9883,0.9907,0.9917,0.9942,0.9978,1.0005,1.0045,1.0078,1.0144,1.0164,1.0202,1.0202,1.0236,1.0208,1.0204,1.0202,1.02,1.0203,1.0241,1.0242,1.0243,1.0244,0,0.9819,0.9824,0.9857,0.9893,0.9921,0.995,0.9978,0.9996,1.0011,1.0038,1.008,1.0105,1.0155,1.0196,1.0235,1.0253,1.0251,1.0252,1.0262,1.026,1.0253,1.0257,1.0157,1.025,1.0249,1.0249,1.0248,1.0248,0.9874,0.9903,0.9931,0.9968,0.999,1.0016,1.0046,1.0062,1.0096,1.0137,1.0141,1.0185,1.0214,1.0266,1.0286,1.0321,1.0312,1.0326,1.033,1.0333,1.0335,1.0247,1.0329,1.0328,1.0328,1.0328,1.0328,0,0.9953,0.997,1.0004,1.0043,1.0072,1.0066,1.0096,1.0121,1.016,1.0187,1.0219,1.0266,1.0304,1.0327,1.0366,1.0389,1.0389,1.0399,1.0398,1.0402,1.0341,1.0329,1.0399,1.0399,1.0399,1.0399,1.0399,1.0399,0.9997,1.0046,1.0054,1.0114,1.0131,1.0173,1.0191,1.0215,1.0236,1.0288,1.032,1.0334,1.0359,1.04,1.0435,1.044,1.0455,1.0466,1.047,1.0413,1.0406,1.0399,1.0388,1.0469,1.0469,1.0528,1.0528,1.0529]},{"header":{"parameterUnit":"m.s-1","parameterCategory":1,"la1":30.2991,"la2":30.254,"lo1":-89.0895,"lo2":-89.0444,"dy":0.0017,"dx":0.0017,"nx":28,"ny":28,"refTime":"2024-04-18T09:00:00:Z","depth":0,"parameterNumber":3,"parameterNumberName":"V-component_of_WINDS"},"data":[0,0,0,0,0,0,0,0,0,0,0,0,0,0,0,0,0,0,0,0,0,0,0,0,0,0,0,0,0,0,0,0,0,0,0,0,0,0,0,0,0,0,0,0,0,0,0,0,0,0,0,0,0,0,0,0,0,0,1.9484,1.9484,0,1.9528,1.9529,1.9529,1.9506,1.9505,1.9504,1.9503,1.9544,1.9546,1.9548,0,0,0,0,0,0,0,0,0,0,0,0,0,1.9375,1.9377,1.9484,1.9485,1.9485,1.9528,1.9529,1.9529,1.9506,1.9505,1.9504,1.9502,1.9543,1.9545,1.9548,0,0,0,0,0,0,0,0,0,0,0,0,0,1.9421,1.9378,1.9484,1.9479,1.9479,1.9528,1.9529,1.9529,1.9507,1.9505,1.9503,1.9502,1.9542,1.9545,1.9548,1.9603,0,0,1.9558,1.956,0,0,0,0,0,0,0,0,1.9419,1.9425,1.9479,1.9479,1.948,1.951,1.9505,1.9554,1.9507,1.9496,1.9503,1.9501,1.9533,1.9537,1.9549,1.9605,1.9607,1.9559,1.9561,1.9562,1.9563,0,0,0,0,0,0,0,1.9415,1.9423,1.9501,1.948,1.948,1.9473,1.9478,1.9514,1.9524,1.9497,1.9495,1.9501,1.9533,1.9546,1.955,1.9607,1.9558,1.9561,1.9563,1.9565,1.971,1.9712,0,0,0,0,0,0,1.9413,1.9421,1.95,1.9503,1.9444,1.9476,1.9482,1.9502,1.9523,1.9525,1.9503,1.95,1.9541,1.9546,1.9551,1.9617,1.9562,1.9565,1.9567,1.9708,1.9711,1.9713,0,0,0,0,0,0,1.9411,1.942,1.9498,1.9461,1.9471,1.948,1.9503,1.9504,1.9517,1.9528,1.9529,1.9514,1.954,1.9547,1.9591,1.9618,1.9566,1.9569,1.9706,1.9709,1.9712,1.9749,0,0,0,0,0,0,1.9408,1.942,1.9442,1.9462,1.9473,1.9538,1.9505,1.9506,1.9523,1.952,1.9539,1.9541,1.9539,1.9586,1.9594,1.9622,1.9572,1.9704,1.9707,1.9711,1.9745,1.9753,1.9759,0,0,0,0,0,1.9404,1.945,1.9443,1.9453,1.9501,1.954,1.9546,1.9545,1.9525,1.9547,1.9554,1.954,1.9614,1.9591,1.9599,1.9629,1.9702,1.9706,1.971,1.9742,1.9751,1.9759,0,0,0,0,0,0,1.9431,1.9452,1.9445,1.9499,1.9518,1.9536,1.9563,1.9554,1.9578,1.9574,1.957,1.9575,1.9621,1.9629,1.9603,1.9683,1.9655,1.9661,1.9676,1.9685,1.9691,1.9688,1.9575,0,0,0,0,0,1.9443,1.9475,1.9491,1.9537,1.9547,1.9554,1.957,1.9568,1.9587,1.9595,1.9605,1.9622,1.965,1.9667,1.9693,1.9746,1.975,1.9771,1.9778,1.9783,1.9789,1.9817,1.9827,1.9727,1.9727,1.9727,0,0,1.9468,1.9484,1.9504,1.9543,1.9557,1.9589,1.956,1.9595,1.9618,1.9599,1.9642,1.965,1.9669,1.9718,1.974,1.9727,1.9817,1.9789,1.9793,1.9796,1.9823,1.9832,1.9841,1.973,1.9729,1.9729,0,0,1.9531,1.9546,1.9586,1.9602,1.9625,1.9629,1.9638,1.9658,1.9663,1.9706,1.9693,1.9719,1.9766,1.9781,1.9794,1.9862,1.985,1.9871,1.9907,1.9935,1.9943,1.995,1.9974,1.9983,1.9876,1.9876,1.9876,0,1.9559,1.9608,1.9607,1.9643,1.966,1.9647,1.9687,1.9701,1.973,1.9742,1.9726,1.9785,1.9797,1.9849,1.9866,1.9877,1.9887,1.9869,1.9942,1.9949,1.9955,1.9978,1.9987,1.9878,1.9878,1.9878,1.9878,0,1.9641,1.9675,1.9704,1.9735,1.9755,1.9793,1.9797,1.9817,1.9813,1.9818,1.9862,1.9876,1.9904,1.9916,1.9911,1.9968,1.9958,1.9942,1.9914,1.9967,1.9989,1.9997,1.9882,1.9881,1.988,1.988,0,0,1.9722,1.9753,1.9763,1.9777,1.9801,1.9827,1.9863,1.9892,1.991,1.993,1.996,2.0,1.9986,2.0001,1.9998,2.0023,2.0076,2.0003,2.0004,2.0016,2.0138,2.015,2.016,2.0068,2.0069,2.0071,2.0136,0,1.9786,1.9852,1.9853,1.9912,1.9943,1.9931,1.9962,1.998,1.9986,2.0011,2.0017,2.0046,2.0025,2.0034,2.0058,2.0064,2.01,2.0059,2.0095,2.0096,2.0091,2.0171,2.0184,2.0245,2.0145,2.0146,2.0147,0,1.987,1.9895,1.9959,1.9979,1.9992,2.0021,2.0047,2.0073,2.0092,2.0094,2.0112,2.0105,2.0141,2.0111,2.016,2.0132,2.0147,2.0152,2.0154,2.0157,2.0125,2.0177,2.0265,2.0274,2.016,2.0159,2.0158,0,1.9922,1.9972,2.0017,2.0029,2.0053,2.0074,2.0085,2.0102,2.012,2.0143,2.0154,2.018,2.0194,2.0214,2.0214,2.0193,2.0263,2.0234,2.0265,2.0265,2.0281,2.028,2.0372,2.029,2.0289,2.0289,2.0289,0,1.9994,2.0033,2.0041,2.0068,2.0111,2.0111,2.0153,2.0162,2.0178,2.0206,2.0196,2.0222,2.022,2.0246,2.0246,2.0286,2.0292,2.0295,2.0294,2.0296,2.0296,2.0305,2.0301,2.0292,2.0291,2.0291,2.029,0,2.006,2.0066,2.0114,2.0134,2.014,2.0171,2.0187,2.0213,2.0218,2.0253,2.0261,2.0269,2.0299,2.0301,2.0335,2.0335,2.0384,2.0378,2.0378,2.0377,2.0408,2.0406,2.051,2.0524,2.0433,2.0433,2.0434,0,2.0105,2.0136,2.0159,2.0178,2.0191,2.0221,2.024,2.024,2.0259,2.0284,2.0306,2.0335,2.0359,2.0407,2.0415,2.044,2.0436,2.0471,2.0439,2.044,2.0436,2.0435,2.0438,2.0477,2.0478,2.0479,2.0479,0,2.0185,2.0187,2.0215,2.0245,2.0267,2.029,2.031,2.0326,2.0329,2.0351,2.0382,2.0401,2.0436,2.0465,2.0491,2.05,2.049,2.0489,2.0498,2.05,2.0498,2.05,2.0395,2.0487,2.0486,2.0485,2.0485,2.0485,2.0242,2.0269,2.029,2.0321,2.0338,2.0358,2.0383,2.0392,2.0419,2.0449,2.0447,2.0482,2.0499,2.0533,2.0544,2.0571,2.0559,2.0571,2.0574,2.0577,2.0581,2.0494,2.0575,2.0575,2.0575,2.0575,2.0574,0,2.0322,2.0335,2.0364,2.0395,2.0419,2.0409,2.0432,2.0453,2.0484,2.0502,2.0526,2.0562,2.059,2.06,2.0628,2.0647,2.0643,2.0654,2.0652,2.0654,2.059,2.058,2.0656,2.0656,2.0656,2.0656,2.0656,2.0656,2.0366,2.0411,2.0415,2.0467,2.0479,2.0515,2.0529,2.0547,2.0562,2.0603,2.0627,2.0634,2.0649,2.0677,2.0702,2.0704,2.0714,2.0727,2.0728,2.0667,2.0659,2.0651,2.0642,2.073,2.073,2.079,2.079,2.0791]}]]